• In Uzbekistan
  • List of Countries
  • For 7 days
  • Water Temperature
  • Satellite Maps
  • Weather Map
  • Weather Widgets
  • user-avatar
    Login

    Hourly Weather Muczne

    Today, 25 April, Wednesday

    Time Temperature Precipitation Wind Pressure Humidity
    00:00 +11°C° 0 mm 1 mps 696 mmHg 84%
    01:00 +11°C° 0 mm 1 mps 696 mmHg 86%
    02:00 +10°C° 0 mm 1 mps 696 mmHg 88%
    03:00 +10°C° 0 mm 1 mps 696 mmHg 89%
    04:00 +10°C° 0 mm 1 mps 696 mmHg 91%
    05:00 +9°C° 0 mm 2 mps 696 mmHg 93%
    06:00 +10°C° 0 mm 2 mps 696 mmHg 89%
    07:00 +12°C° 0 mm 2 mps 696 mmHg 85%
    08:00 +14°C° 0 mm 2 mps 697 mmHg 80%
    09:00 +14°C° 0 mm 3 mps 696 mmHg 76%
    10:00 +16°C° 0 mm 3 mps 696 mmHg 71%
    11:00 +17°C° 0 mm 4 mps 696 mmHg 66%
    12:00 +18°C° 0 mm 4 mps 696 mmHg 62%
    13:00 +19°C° 0 mm 5 mps 696 mmHg 58%
    14:00 +20°C° 0 mm 6 mps 696 mmHg 54%
    15:00 +20°C° 0.1 mm 6 mps 695 mmHg 56%
    16:00 +19°C° 0.1 mm 6 mps 695 mmHg 59%
    17:00 +19°C° 0.1 mm 6 mps 694 mmHg 61%
    18:00 +17°C° 0.3 mm 6 mps 694 mmHg 67%
    19:00 +15°C° 0.3 mm 5 mps 694 mmHg 74%
    20:00 +14°C° 0.3 mm 5 mps 694 mmHg 80%
    21:00 +13°C° 0.5 mm 4 mps 694 mmHg 82%
    22:00 +13°C° 0.5 mm 4 mps 694 mmHg 84%
    23:00 +12°C° 0.5 mm 3 mps 694 mmHg 85%

    Tomorrow, 26 April, Thursday

    Time Temperature Precipitation Wind Pressure Humidity
    00:00 +12°C° 0.4 mm 3 mps 694 mmHg 88%
    01:00 +12°C° 0.4 mm 2 mps 694 mmHg 90%
    02:00 +12°C° 0.4 mm 2 mps 694 mmHg 92%
    03:00 +11°C° 0.1 mm 1 mps 694 mmHg 92%
    04:00 +11°C° 0.1 mm 1 mps 694 mmHg 93%
    05:00 +10°C° 0.1 mm 1 mps 694 mmHg 94%
    06:00 +11°C° 0.1 mm 1 mps 695 mmHg 91%
    07:00 +11°C° 0.1 mm 1 mps 695 mmHg 89%
    08:00 +12°C° 0.1 mm 1 mps 696 mmHg 87%
    09:00 +12°C° 0.1 mm 1 mps 696 mmHg 87%
    10:00 +12°C° 0.1 mm 1 mps 696 mmHg 87%
    11:00 +12°C° 0.1 mm 1 mps 696 mmHg 86%
    12:00 +13°C° 0.2 mm 1 mps 696 mmHg 84%
    13:00 +13°C° 0.2 mm 1 mps 696 mmHg 82%
    14:00 +14°C° 0.2 mm 1 mps 695 mmHg 80%
    15:00 +13°C° 0.3 mm 1 mps 695 mmHg 82%
    16:00 +13°C° 0.3 mm 1 mps 695 mmHg 83%
    17:00 +13°C° 0.3 mm 2 mps 695 mmHg 84%
    18:00 +12°C° 0.1 mm 1 mps 696 mmHg 86%
    19:00 +11°C° 0.1 mm 1 mps 696 mmHg 89%
    20:00 +10°C° 0.1 mm 1 mps 696 mmHg 91%
    21:00 +10°C° 0.1 mm 1 mps 696 mmHg 90%
    22:00 +9°C° 0.1 mm 1 mps 696 mmHg 89%
    23:00 +8°C° 0.1 mm 2 mps 697 mmHg 88%

    Day after tomorrow, 27 April, Friday

    Time Temperature Precipitation Wind Pressure Humidity
    00:00 +7°C° 0 mm 2 mps 697 mmHg 88%
    01:00 +6°C° 0 mm 2 mps 697 mmHg 88%
    02:00 +6°C° 0 mm 2 mps 697 mmHg 88%
    03:00 +5°C° 0 mm 2 mps 697 mmHg 89%
    04:00 +5°C° 0 mm 1 mps 697 mmHg 90%
    05:00 +4°C° 0 mm 1 mps 697 mmHg 91%
    06:00 +5°C° 0 mm 1 mps 698 mmHg 85%
    07:00 +6°C° 0 mm 2 mps 698 mmHg 79%
    08:00 +7°C° 0 mm 2 mps 699 mmHg 73%
    09:00 +9°C° 0 mm 2 mps 699 mmHg 64%
    10:00 +12°C° 0 mm 1 mps 700 mmHg 55%
    11:00 +13°C° 0 mm 1 mps 700 mmHg 45%
    12:00 +14°C° 0 mm 1 mps 700 mmHg 43%
    13:00 +15°C° 0 mm 1 mps 700 mmHg 40%
    14:00 +16°C° 0 mm 1 mps 700 mmHg 37%
    15:00 +16°C° 0 mm 1 mps 700 mmHg 39%
    16:00 +15°C° 0 mm 1 mps 699 mmHg 40%
    17:00 +15°C° 0 mm 1 mps 699 mmHg 42%
    18:00 +13°C° 0 mm 1 mps 699 mmHg 51%
    19:00 +10°C° 0 mm 1 mps 698 mmHg 60%
    20:00 +8°C° 0 mm 1 mps 698 mmHg 68%
    21:00 +8°C° 0 mm 1 mps 698 mmHg 71%
    22:00 +7°C° 0 mm 1 mps 698 mmHg 73%
    23:00 +6°C° 0 mm 2 mps 698 mmHg 75%

    28 April, Saturday

    Time Temperature Precipitation Wind Pressure Humidity
    00:00 +5°C° 0 mm 2 mps 698 mmHg 74%
    01:00 +5°C° 0 mm 2 mps 698 mmHg 73%
    02:00 +5°C° 0 mm 2 mps 697 mmHg 72%
    03:00 +5°C° 0 mm 2 mps 697 mmHg 70%
    04:00 +5°C° 0 mm 2 mps 697 mmHg 68%
    05:00 +5°C° 0 mm 2 mps 697 mmHg 66%
    06:00 +7°C° 0 mm 2 mps 697 mmHg 63%
    07:00 +10°C° 0 mm 2 mps 698 mmHg 60%
    08:00 +13°C° 0 mm 2 mps 698 mmHg 58%
    09:00 +15°C° 0 mm 2 mps 698 mmHg 55%
    10:00 +16°C° 0 mm 3 mps 699 mmHg 52%
    11:00 +18°C° 0 mm 4 mps 699 mmHg 49%
    12:00 +19°C° 0 mm 4 mps 699 mmHg 48%
    13:00 +20°C° 0 mm 4 mps 699 mmHg 48%
    14:00 +20°C° 0 mm 4 mps 698 mmHg 48%
    15:00 +20°C° 0 mm 4 mps 698 mmHg 52%
    16:00 +20°C° 0 mm 4 mps 698 mmHg 55%
    17:00 +20°C° 0 mm 3 mps 698 mmHg 59%
    18:00 +18°C° 0 mm 3 mps 698 mmHg 69%
    19:00 +16°C° 0 mm 2 mps 698 mmHg 79%
    20:00 +14°C° 0 mm 2 mps 697 mmHg 89%
    21:00 +13°C° 0 mm 2 mps 698 mmHg 90%
    22:00 +13°C° 0 mm 2 mps 698 mmHg 92%
    23:00 +12°C° 0 mm 1 mps 698 mmHg 93%

    29 April, Sunday

    Time Temperature Precipitation Wind Pressure Humidity
    00:00 +12°C° 0.1 mm 1 mps 698 mmHg 93%
    01:00 +12°C° 0.1 mm 1 mps 698 mmHg 93%
    02:00 +12°C° 0.1 mm 1 mps 698 mmHg 93%
    03:00 +12°C° 0.2 mm 1 mps 698 mmHg 93%
    04:00 +12°C° 0.2 mm 1 mps 698 mmHg 93%
    05:00 +12°C° 0.2 mm 1 mps 698 mmHg 93%
    06:00 +13°C° 0.1 mm 1 mps 698 mmHg 89%
    07:00 +15°C° 0.1 mm 1 mps 698 mmHg 86%
    08:00 +16°C° 0.1 mm 1 mps 699 mmHg 82%
    09:00 +19°C° 0.5 mm 1 mps 699 mmHg 76%
    10:00 +20°C° 0.5 mm 1 mps 699 mmHg 70%
    11:00 +20°C° 0.5 mm 2 mps 699 mmHg 63%
    12:00 +22°C° 0.5 mm 1 mps 699 mmHg 60%
    13:00 +23°C° 0.5 mm 1 mps 699 mmHg 57%
    14:00 +24°C° 0.5 mm 1 mps 698 mmHg 54%
    15:00 +24°C° 0.2 mm 1 mps 698 mmHg 55%
    16:00 +23°C° 0.2 mm 2 mps 698 mmHg 56%
    17:00 +23°C° 0.2 mm 2 mps 697 mmHg 58%
    18:00 +21°C° 0.3 mm 1 mps 697 mmHg 67%
    19:00 +19°C° 0.3 mm 1 mps 697 mmHg 76%
    20:00 +15°C° 0.3 mm 1 mps 696 mmHg 85%
    21:00 +15°C° 0 mm 1 mps 696 mmHg 85%
    22:00 +14°C° 0 mm 1 mps 696 mmHg 86%
    23:00 +13°C° 0 mm 1 mps 696 mmHg 87%

    30 April, Monday

    Time Temperature Precipitation Wind Pressure Humidity
    00:00 +13°C° 0 mm 1 mps 696 mmHg 85%
    01:00 +13°C° 0 mm 1 mps 695 mmHg 84%
    02:00 +12°C° 0 mm 1 mps 695 mmHg 83%
    03:00 +12°C° 0 mm 1 mps 695 mmHg 82%
    04:00 +12°C° 0 mm 1 mps 695 mmHg 81%
    05:00 +11°C° 0 mm 1 mps 695 mmHg 80%
    06:00 +13°C° 0 mm 1 mps 695 mmHg 75%
    07:00 +15°C° 0 mm 1 mps 695 mmHg 71%
    08:00 +18°C° 0 mm 1 mps 696 mmHg 66%
    09:00 +18°C° 0 mm 2 mps 696 mmHg 57%
    10:00 +20°C° 0 mm 2 mps 696 mmHg 49%
    11:00 +23°C° 0 mm 2 mps 696 mmHg 40%
    12:00 +24°C° 0 mm 2 mps 696 mmHg 38%
    13:00 +24°C° 0 mm 2 mps 696 mmHg 37%
    14:00 +25°C° 0 mm 3 mps 695 mmHg 35%
    15:00 +24°C° 0 mm 2 mps 695 mmHg 39%
    16:00 +24°C° 0 mm 2 mps 695 mmHg 42%
    17:00 +24°C° 0 mm 2 mps 695 mmHg 45%
    18:00 +20°C° 0 mm 2 mps 694 mmHg 53%
    19:00 +18°C° 0 mm 2 mps 694 mmHg 62%
    20:00 +15°C° 0 mm 1 mps 693 mmHg 70%
    21:00 +14°C° 0 mm 1 mps 693 mmHg 68%
    22:00 +14°C° 0 mm 1 mps 693 mmHg 67%
    23:00 +13°C° 0 mm 1 mps 693 mmHg 65%
    Show more